K1VL Weather Reports


Display with metric or nautical units.
time (UTC)temp
F
wind
direction
speed
MPH
gust
MPH
rain 1hr
in
rain 24hr
in
rain mn
in
humidity
%
barometer
mb
20260903132515 63 0.0 0.0 0.00 0.00 0.00 98 1015.8
20260903132015 62 0.0 0.0 0.00 0.00 0.00 98 1015.8
20260903131515 62 0.0 0.0 0.00 0.00 0.00 98 1015.7
20260903131035 62 0.0 0.0 0.00 0.00 0.00 98 1015.8
20260903130515 62 0.0 0.0 0.00 0.00 0.00 98 1015.7
20260903130038 62 0.0 0.0 0.00 0.00 0.00 98 1015.7
20260903125515 62 0.0 0.0 0.00 0.00 0.00 98 1015.7
20260903125035 62 0.0 0.0 0.00 0.00 0.00 98 1015.7
20260903124515 62 0.0 0.0 0.00 0.00 0.00 98 1015.7
20260903124015 62 0.0 0.0 0.00 0.00 0.00 98 1015.7
20260903123515 62 0.0 1.0 0.00 0.00 0.00 98 1015.8
20260903123015 61 0.0 0.0 0.00 0.00 0.00 98 1015.8
20260903122515 61 0.0 0.0 0.00 0.00 0.00 98 1015.8
20260903122015 61 0.0 1.0 0.00 0.00 0.00 98 1015.9
20260903121535 61 0.0 1.0 0.00 0.00 0.00 98 1015.9
20260903121015 61 0.0 1.0 0.00 0.00 0.00 98 1015.9
20260903120515 61 0.0 0.0 0.00 0.00 0.00 98 1015.8
20260903120015 61 0.0 0.0 0.00 0.00 0.00 98 1015.8
20260903115515 61 0.0 0.0 0.00 0.00 0.00 98 1015.8
20260903115015 61 0.0 0.0 0.00 0.00 0.00 98 1015.9
20260903114515 61 0.0 0.0 0.00 0.00 0.00 98 1016.0
20260903114015 60 0.0 0.0 0.00 0.00 0.00 98 1015.9
20260903113515 60 0.0 0.0 0.00 0.00 0.00 98 1016.0
20260903113015 60 0.0 0.0 0.00 0.00 0.00 98 1016.0
20260903112555 60 0.0 0.0 0.00 0.00 0.00 98 1016.0
20260903112015 60 0.0 1.0 0.00 0.00 0.00 98 1016.0
20260903111555 60 0.0 2.0 0.00 0.00 0.00 98 1016.1
20260903111015 60 0.0 2.0 0.00 0.00 0.00 98 1016.0
20260903110515 59 0.0 1.0 0.00 0.00 0.00 98 1016.1
20260903110015 59 0.0 1.0 0.00 0.00 0.00 98 1016.1
20260903105515 59 0.0 1.0 0.00 0.00 0.00 98 1016.0
20260903105015 59 0.0 0.0 0.00 0.00 0.00 98 1016.0
20260903104515 59 0.0 1.0 0.00 0.00 0.00 98 1016.1
20260903104015 59 0.0 2.0 0.00 0.00 0.00 98 1016.1
20260903103515 59 0.0 1.0 0.00 0.00 0.00 98 1016.1
20260903103015 59 0.0 1.0 0.00 0.00 0.00 98 1016.0
20260903102515 59 113 1.0 4.0 0.00 0.00 0.00 98 1015.9
20260903102015 59 90 3.0 5.0 0.00 0.00 0.00 98 1015.8
20260903101515 59 113 2.0 7.0 0.00 0.00 0.00 98 1015.8
20260903101015 59 135 3.0 5.0 0.00 0.00 0.00 98 1015.9
20260903100515 59 135 1.0 3.0 0.00 0.00 0.00 98 1015.9
20260903100035 59 90 2.0 4.0 0.00 0.00 0.00 98 1015.9
20260903095515 59 135 2.0 7.0 0.00 0.00 0.00 98 1015.8
20260903095015 59 135 1.0 4.0 0.00 0.00 0.00 98 1015.8
20260903094515 59 135 1.0 4.0 0.00 0.00 0.00 98 1015.8
20260903094015 59 135 2.0 5.0 0.00 0.00 0.00 97 1015.7
20260903093515 59 135 2.0 4.0 0.00 0.00 0.00 97 1015.8
20260903093015 59 135 2.0 5.0 0.00 0.00 0.00 97 1015.8
20260903092515 59 158 2.0 5.0 0.00 0.00 0.00 97 1015.9
20260903092015 59 135 2.0 5.0 0.00 0.00 0.00 97 1015.9
20260903091535 60 113 2.0 3.0 0.00 0.00 0.00 97 1015.9
20260903091015 60 113 1.0 3.0 0.00 0.00 0.00 97 1015.9
20260903090535 60 113 2.0 4.0 0.00 0.00 0.00 97 1015.9
20260903090015 60 135 1.0 3.0 0.00 0.00 0.00 97 1016.0
20260903085515 59 135 1.0 3.0 0.00 0.00 0.00 97 1016.1
20260903085015 59 135 1.0 3.0 0.00 0.00 0.00 98 1016.1
20260903084515 59 0.0 3.0 0.00 0.00 0.00 98 1016.2
20260903084035 59 68 1.0 2.0 0.00 0.00 0.00 98 1016.2
20260903083515 59 113 1.0 3.0 0.00 0.00 0.00 98 1016.2
20260903083015 59 90 2.0 4.0 0.00 0.00 0.00 98 1016.1
20260903082515 59 90 2.0 4.0 0.00 0.00 0.00 98 1016.2
20260903082015 59 68 2.0 5.0 0.00 0.00 0.00 98 1016.2
20260903081535 59 113 2.0 4.0 0.00 0.00 0.00 97 1016.3
20260903081035 59 113 2.0 4.0 0.00 0.00 0.00 97 1016.4
20260903080515 60 113 3.0 5.0 0.00 0.00 0.00 97 1016.4
20260903080015 60 113 2.0 4.0 0.00 0.00 0.00 97 1016.4
20260903075515 60 113 2.0 5.0 0.00 0.00 0.00 97 1016.4
20260903075015 60 113 3.0 5.0 0.00 0.00 0.00 96 1016.4
20260903074515 60 113 3.0 5.0 0.00 0.00 0.00 96 1016.4
20260903074035 60 135 3.0 7.0 0.00 0.00 0.00 96 1016.5
20260903073515 60 90 2.0 5.0 0.00 0.00 0.00 96 1016.5
20260903073015 60 135 3.0 5.0 0.00 0.00 0.00 96 1016.5
20260903072515 60 135 4.0 7.0 0.00 0.00 0.00 96 1016.5
20260903072015 60 135 3.0 6.0 0.00 0.00 0.00 96 1016.5
20260903071515 60 113 3.0 6.0 0.00 0.00 0.00 96 1016.6
20260903071015 60 90 3.0 6.0 0.00 0.00 0.00 96 1016.7
20260903070515 60 113 3.0 5.0 0.00 0.00 0.00 96 1016.9
20260903070015 60 113 3.0 6.0 0.00 0.00 0.00 96 1016.7
20260903065515 60 135 1.0 5.0 0.00 0.00 0.00 96 1016.9
20260903065055 60 135 2.0 8.0 0.00 0.00 0.00 96 1016.8
20260903064535 60 135 1.0 4.0 0.00 0.00 0.00 96 1016.9
20260903064015 60 113 2.0 4.0 0.00 0.00 0.00 96 1016.9
20260903063515 60 90 2.0 5.0 0.00 0.00 0.00 96 1016.8
20260903063015 60 90 2.0 6.0 0.00 0.00 0.00 95 1016.8
20260903062515 60 113 3.0 7.0 0.00 0.00 0.00 95 1016.8
20260903062015 60 90 4.0 8.0 0.00 0.00 0.00 95 1016.8
20260903061515 60 90 2.0 7.0 0.00 0.00 0.00 95 1016.9
20260903061015 60 113 2.0 5.0 0.00 0.00 0.00 95 1017.0
20260903060515 60 135 2.0 5.0 0.00 0.00 0.00 94 1017.1
20260903060015 60 90 2.0 6.0 0.00 0.00 0.00 94 1017.2
20260903055516 60 113 1.0 3.0 0.00 0.00 0.00 94 1017.2
20260903055015 60 90 2.0 4.0 0.00 0.00 0.00 93 1017.3
20260903054515 60 68 3.0 6.0 0.00 0.00 0.00 93 1017.3
20260903054015 61 90 2.0 5.0 0.00 0.00 0.00 92 1017.4
20260903053515 61 68 2.0 6.0 0.00 0.00 0.00 91 1017.6
20260903053015 61 135 4.0 11.0 0.00 0.00 0.00 90 1017.6
20260903052515 61 68 3.0 9.0 0.00 0.00 0.00 89 1017.7
20260903052015 61 113 2.0 6.0 0.00 0.00 0.00 88 1017.7
20260903051515 61 135 4.0 7.0 0.00 0.00 0.00 88 1017.6
20260903051015 61 158 2.0 6.0 0.00 0.00 0.00 88 1017.6
20260903050535 62 113 3.0 10.0 0.00 0.00 0.00 87 1017.7
20260903050015 62 135 2.0 5.0 0.00 0.00 0.00 87 1017.7
20260903045515 62 135 2.0 6.0 0.00 0.00 0.00 87 1017.6
20260903045035 62 113 2.0 7.0 0.00 0.00 0.00 87 1017.6
20260903044515 62 113 2.0 8.0 0.00 0.00 0.00 86 1017.6
20260903044015 62 158 4.0 11.0 0.00 0.00 0.00 86 1017.7
20260903043515 62 135 3.0 8.0 0.00 0.00 0.00 85 1017.7
20260903043015 62 113 5.0 10.0 0.00 0.00 0.00 85 1017.8
20260903042515 62 135 4.0 8.0 0.00 0.00 0.00 85 1017.9
20260903042035 62 135 3.0 10.0 0.00 0.00 0.00 85 1017.8
20260903041515 62 135 3.0 7.0 0.00 0.00 0.00 84 1017.8
20260903041015 62 113 5.0 9.0 0.00 0.00 0.00 84 1017.7
20260903040515 62 135 5.0 11.0 0.00 0.00 0.00 84 1017.7
20260903040015 62 135 5.0 13.0 0.00 0.00 0.00 84 1017.6
20260903035515 62 135 4.0 13.0 0.00 0.00 0.00 85 1017.6
20260903035015 62 68 5.0 9.0 0.00 0.00 0.00 85 1017.4
20260903034516 62 135 5.0 14.0 0.00 0.00 0.00 86 1017.6
20260903034015 62 90 5.0 12.0 0.00 0.00 0.00 86 1017.7
20260903033515 62 113 2.0 8.0 0.00 0.00 0.00 86 1017.9
20260903033015 62 135 3.0 6.0 0.00 0.01 0.00 85 1018.1
20260903032515 62 90 4.0 12.0 0.00 0.01 0.00 85 1018.1
20260903032035 62 113 4.0 12.0 0.00 0.01 0.00 85 1018.2
20260903031515 63 135 5.0 10.0 0.00 0.01 0.00 85 1018.3
20260903031035 63 135 5.0 10.0 0.00 0.01 0.00 86 1018.4
20260903030515 63 135 4.0 8.0 0.00 0.01 0.00 85 1018.6
20260903030055 63 135 3.0 6.0 0.00 0.01 0.00 86 1018.8
20260903025515 63 135 3.0 9.0 0.00 0.01 0.00 87 1018.8
20260903025015 63 90 3.0 9.0 0.00 0.01 0.00 87 1018.8
20260903024555 63 90 3.0 8.0 0.00 0.01 0.00 88 1019.0
20260903024016 63 113 2.0 7.0 0.00 0.01 0.00 88 1019.0
20260903023516 63 90 3.0 7.0 0.00 0.01 0.00 88 1019.3
20260903023015 63 135 2.0 6.0 0.00 0.02 0.00 89 1019.2
20260903022515 63 180 3.0 10.0 0.00 0.02 0.00 89 1019.1
20260903022015 63 113 2.0 5.0 0.00 0.02 0.00 90 1019.1
20260903021515 63 135 2.0 8.0 0.00 0.02 0.00 90 1019.0
20260903021015 63 135 3.0 10.0 0.00 0.02 0.00 90 1019.0
20260903020515 63 135 4.0 12.0 0.00 0.02 0.00 90 1019.0
20260903020015 63 135 4.0 13.0 0.00 0.02 0.00 90 1019.1
20260903015536 63 90 4.0 12.0 0.00 0.02 0.00 91 1019.3
20260903015015 63 68 5.0 11.0 0.00 0.02 0.00 91 1019.4
20260903014515 63 158 4.0 15.0 0.00 0.02 0.00 91 1019.5
20260903014015 63 135 4.0 12.0 0.00 0.02 0.00 90 1019.5
20260903013515 63 113 4.0 17.0 0.00 0.02 0.00 90 1019.6
20260903013015 63 158 6.0 16.0 0.00 0.02 0.00 90 1019.5
20260903012515 63 113 2.0 6.0 0.00 0.02 0.00 90 1019.6
20260903012016 63 135 4.0 8.0 0.00 0.02 0.00 90 1019.5
20260903011515 63 113 4.0 11.0 0.00 0.02 0.00 90 1019.6
20260903011015 63 113 3.0 8.0 0.00 0.02 0.00 90 1019.5
20260903010536 63 90 3.0 7.0 0.00 0.02 0.00 90 1019.5
20260903010015 63 135 3.0 8.0 0.00 0.02 0.00 90 1019.6
20260903005516 63 158 3.0 6.0 0.00 0.02 0.00 89 1019.6
20260903005016 63 68 3.0 7.0 0.00 0.02 0.00 89 1019.5
20260903004516 63 68 3.0 7.0 0.00 0.02 0.00 89 1019.5
20260903004015 63 113 4.0 10.0 0.00 0.02 0.00 90 1019.5
20260903003515 63 90 4.0 11.0 0.00 0.02 0.00 90 1019.5
20260903003015 63 90 5.0 10.0 0.00 0.02 0.00 90 1019.3
20260903002515 63 90 3.0 8.0 0.00 0.02 0.00 91 1019.3
20260903002016 63 135 4.0 7.0 0.00 0.02 0.00 91 1019.2
20260903001515 63 113 3.0 9.0 0.00 0.02 0.00 91 1019.1
20260903001015 63 113 4.0 7.0 0.00 0.02 0.00 91 1019.3
20260903000516 63 90 4.0 9.0 0.00 0.02 0.00 91 1019.2
20260903000035 63 135 3.0 8.0 0.00 0.02 0.00 91 1019.2
20260902235516 63 90 5.0 9.0 0.00 0.02 0.00 91 1019.0
20260902235015 63 135 6.0 13.0 0.00 0.02 0.00 91 1019.1
20260902234515 63 113 6.0 11.0 0.00 0.02 0.00 91 1019.0
20260902234015 63 135 5.0 11.0 0.00 0.02 0.00 91 1019.0
20260902233515 63 113 6.0 15.0 0.00 0.02 0.00 91 1018.9
20260902233015 63 113 6.0 12.0 0.00 0.02 0.00 91 1019.0
20260902232515 63 113 7.0 17.0 0.00 0.02 0.00 91 1019.1
20260902232036 63 68 5.0 8.0 0.00 0.02 0.00 91 1019.3
20260902231535 63 90 6.0 11.0 0.00 0.02 0.00 91 1019.4
20260902231055 63 113 5.0 8.0 0.00 0.02 0.00 90 1019.4
20260902230515 63 90 5.0 8.0 0.00 0.02 0.00 90 1019.6
20260902230015 63 113 3.0 7.0 0.00 0.02 0.00 90 1019.8
20260902225516 63 135 3.0 7.0 0.00 0.02 0.00 90 1020.0
20260902225015 63 90 3.0 7.0 0.00 0.02 0.00 91 1020.2
20260902224516 63 113 2.0 5.0 0.00 0.02 0.00 90 1020.5
20260902224015 63 113 3.0 7.0 0.00 0.02 0.00 90 1020.7
20260902223515 63 135 2.0 5.0 0.00 0.02 0.00 90 1020.7
20260902223035 63 113 2.0 5.0 0.00 0.02 0.00 90 1020.9
20260902222515 63 135 3.0 8.0 0.00 0.02 0.00 90 1020.9
20260902222015 63 113 3.0 5.0 0.00 0.02 0.00 90 1020.9
20260902221515 63 135 3.0 7.0 0.00 0.02 0.00 90 1021.0
20260902221015 63 90 2.0 6.0 0.00 0.02 0.00 90 1020.9
20260902220520 63 135 2.0 4.0 0.00 0.02 0.00 90 1021.0
20260902220015 63 135 3.0 8.0 0.00 0.02 0.00 90 1021.0
20260902215515 63 113 3.0 6.0 0.00 0.02 0.00 90 1021.0
20260902215015 63 90 2.0 5.0 0.00 0.02 0.00 91 1021.1
20260902214516 63 113 3.0 6.0 0.00 0.02 0.00 92 1021.2
20260902214016 63 90 3.0 9.0 0.00 0.02 0.00 92 1021.2
20260902213516 63 90 3.0 6.0 0.00 0.02 0.00 93 1021.1
20260902213015 63 135 2.0 5.0 0.00 0.02 0.00 93 1021.0
20260902212515 63 135 3.0 6.0 0.00 0.02 0.00 92 1021.1
20260902212015 63 68 5.0 10.0 0.00 0.02 0.00 92 1021.1
20260902211516 63 113 4.0 8.0 0.00 0.02 0.00 92 1020.9
20260902211016 63 135 3.0 9.0 0.00 0.02 0.00 92 1021.0
20260902210515 63 113 4.0 9.0 0.00 0.02 0.00 92 1020.9
20260902210016 62 68 3.0 8.0 0.00 0.02 0.00 92 1020.8
20260902205515 62 113 5.0 9.0 0.00 0.02 0.00 92 1020.8
20260902205016 62 90 4.0 8.0 0.00 0.02 0.00 93 1021.0
20260902204515 62 68 4.0 7.0 0.00 0.02 0.00 93 1021.0
20260902204015 62 90 5.0 8.0 0.00 0.02 0.00 92 1021.1
20260902203515 62 90 4.0 9.0 0.00 0.02 0.00 92 1021.3
20260902203015 63 113 4.0 11.0 0.00 0.02 0.00 92 1021.2
20260902202515 63 135 3.0 9.0 0.00 0.02 0.00 92 1021.2
20260902202015 63 135 5.0 11.0 0.00 0.02 0.00 92 1021.1
20260902201516 63 90 4.0 8.0 0.00 0.02 0.00 92 1020.9
20260902201015 63 90 5.0 11.0 0.00 0.02 0.00 92 1021.1
20260902200516 63 135 5.0 14.0 0.00 0.02 0.00 91 1021.2
20260902200016 63 113 5.0 10.0 0.00 0.02 0.00 91 1021.2
20260902195515 63 135 3.0 8.0 0.00 0.02 0.00 92 1021.3
20260902195016 63 113 4.0 7.0 0.00 0.02 0.00 92 1021.3
20260902194536 63 113 2.0 7.0 0.00 0.02 0.00 92 1021.4
20260902194015 62 135 2.0 7.0 0.00 0.02 0.00 92 1021.5
20260902193515 62 135 5.0 10.0 0.00 0.02 0.00 92 1021.4
20260902193015 62 135 3.0 6.0 0.00 0.02 0.00 92 1021.6
20260902192516 63 90 6.0 11.0 0.00 0.02 0.00 91 1021.6
20260902192035 63 113 6.0 14.0 0.00 0.02 0.00 91 1021.6
20260902191515 63 113 6.0 11.0 0.00 0.02 0.00 90 1021.6
20260902191036 63 113 4.0 10.0 0.00 0.02 0.00 90 1021.6
20260902190516 63 68 6.0 13.0 0.00 0.02 0.00 90 1021.6
20260902190015 64 68 7.0 14.0 0.00 0.02 0.00 89 1021.5
20260902185516 64 135 8.0 16.0 0.00 0.02 0.00 89 1021.5
20260902185016 64 135 5.0 12.0 0.00 0.02 0.00 89 1021.5
20260902184516 64 113 7.0 10.0 0.00 0.02 0.00 88 1021.5
20260902184015 64 113 6.0 12.0 0.00 0.02 0.00 88 1021.7
20260902183536 64 68 7.0 12.0 0.00 0.02 0.00 88 1021.7
20260902183016 64 113 6.0 13.0 0.00 0.02 0.00 88 1021.6
20260902182556 64 68 6.0 10.0 0.00 0.02 0.00 88 1021.7
20260902182016 64 135 5.0 11.0 0.00 0.02 0.00 88 1021.8
20260902181515 65 68 6.0 10.0 0.00 0.02 0.00 86 1021.9
20260902181016 65 135 3.0 9.0 0.00 0.02 0.00 86 1021.9
20260902180516 64 113 3.0 9.0 0.00 0.02 0.00 86 1021.8
20260902180016 64 90 5.0 9.0 0.00 0.02 0.00 87 1021.6
20260902175516 64 113 6.0 12.0 0.00 0.02 0.00 87 1021.7
20260902175016 64 135 4.0 9.0 0.00 0.02 0.00 87 1021.9
20260902174515 64 135 7.0 12.0 0.00 0.02 0.00 86 1021.9
20260902174016 64 113 6.0 12.0 0.00 0.02 0.00 85 1021.8
20260902173516 64 113 9.0 18.0 0.00 0.02 0.00 86 1021.7
20260902173016 64 90 9.0 19.0 0.00 0.02 0.00 85 1021.6
20260902172516 64 90 7.0 17.0 0.00 0.02 0.00 85 1021.6
20260902172016 64 113 9.0 15.0 0.00 0.02 0.00 86 1021.7
20260902171516 64 113 8.0 14.0 0.00 0.02 0.00 85 1021.8
20260902171016 64 113 6.0 14.0 0.00 0.02 0.00 85 1021.9
20260902170516 64 135 7.0 12.0 0.00 0.02 0.00 85 1022.0
20260902170036 64 113 7.0 18.0 0.00 0.02 0.00 86 1021.9
20260902165516 63 90 7.0 11.0 0.00 0.02 0.00 86 1021.9
20260902165016 63 135 5.0 9.0 0.00 0.02 0.00 86 1022.0
20260902164556 64 68 5.0 11.0 0.00 0.02 0.00 85 1022.1
20260902164016 63 135 6.0 12.0 0.00 0.02 0.00 86 1021.9
20260902163516 63 135 6.0 16.0 0.00 0.02 0.00 86 1022.0
20260902163036 63 135 5.0 12.0 0.00 0.02 0.00 86 1022.1
20260902162516 63 113 7.0 14.0 0.00 0.02 0.00 86 1022.1
20260902162016 63 113 6.0 16.0 0.00 0.02 0.00 86 1022.1
20260902161516 63 113 5.0 10.0 0.00 0.02 0.00 85 1022.1
20260902161016 63 135 5.0 10.0 0.00 0.02 0.00 84 1022.1
20260902160516 63 113 5.0 10.0 0.00 0.02 0.00 83 1022.2
20260902160016 63 135 6.0 13.0 0.00 0.02 0.00 84 1022.2
20260902155516 63 135 5.0 10.0 0.00 0.02 0.00 84 1022.1
20260902155016 63 113 7.0 13.0 0.00 0.02 0.00 83 1022.2
20260902154516 63 113 6.0 13.0 0.00 0.02 0.00 83 1022.3
20260902154016 63 90 7.0 14.0 0.00 0.02 0.00 84 1022.5
20260902153515 63 90 6.0 12.0 0.00 0.02 0.00 83 1022.6
20260902153016 63 135 6.0 12.0 0.00 0.03 0.00 85 1022.6
20260902152516 63 113 6.0 12.0 0.00 0.03 0.00 84 1022.6
20260902152016 63 135 4.0 12.0 0.00 0.03 0.00 86 1022.6
20260902151536 63 135 4.0 8.0 0.00 0.03 0.00 86 1022.6
20260902151015 63 90 5.0 9.0 0.00 0.03 0.00 86 1022.4
20260902150516 62 68 6.0 11.0 0.00 0.03 0.00 87 1022.5
20260902150016 62 135 6.0 12.0 0.00 0.03 0.00 86 1022.6
20260902145516 62 90 5.0 8.0 0.00 0.03 0.00 87 1022.8
20260902145016 62 135 3.0 9.0 0.00 0.03 0.00 87 1022.9
20260902144516 62 90 5.0 9.0 0.00 0.03 0.00 86 1023.0
20260902144016 62 90 3.0 7.0 0.00 0.03 0.00 86 1022.8
20260902143516 62 135 4.0 8.0 0.00 0.03 0.00 86 1022.8
20260902143016 63 90 5.0 9.0 0.00 0.04 0.00 85 1022.7
20260902142516 62 135 5.0 10.0 0.00 0.04 0.00 85 1022.6
20260902142016 62 113 6.0 14.0 0.00 0.04 0.00 85 1022.7
20260902141515 62 135 6.0 11.0 0.00 0.04 0.00 86 1022.6
20260902141016 62 90 5.0 12.0 0.00 0.04 0.00 84 1022.6
20260902140516 62 90 4.0 11.0 0.00 0.04 0.00 85 1022.5
20260902140015 62 90 4.0 12.0 0.00 0.04 0.00 85 1022.3
20260902135515 61 135 4.0 11.0 0.00 0.04 0.00 85 1022.3
20260902135036 61 135 6.0 12.0 0.00 0.04 0.00 84 1022.3
20260902134516 61 135 5.0 11.0 0.00 0.04 0.00 85 1022.4
20260902134036 60 135 4.0 10.0 0.00 0.04 0.00 86 1022.5
20260902133516 60 90 5.0 11.0 0.00 0.04 0.00 85 1022.4
20260902133015 60 113 5.0 9.0 0.00 0.04 0.00 85 1022.2